Flag for Canada Weather past 2 weeks in Selkirk, Manitoba, Canada

Now
33 °F

Chilly.


Feels Like: 33 °F
Forecast: 34 / 46 °F
Wind: 2 mph from Northeast

Location: Winnipeg The Forks


UV Index: 0 (Low)

Visibility: N/A


Pressure: 29.81 "Hg

Humidity: 94%

Dew point: 32 °F

Location of SelkirkLocation

Historic Weather in Selkirk

°F

Selkirk temperature yesterday

Maximum temperature yesterday: 41 °F (at 12:00 AM)
Minimum temperature yesterday: 33 °F (at 8:00 PM)
Average temperature yesterday: 38 °F

Past Weeks' High & Low Weather Summary

 TemperatureHumidityPressure
High58 °F (Apr 23, 4:00 PM)100% (Apr 25, 12:00 AM)30.45 "Hg (Apr 25, 12:00 AM)
Low10 °F (Apr 15, 1:00 AM)24% (Apr 18, 3:00 PM)29.49 "Hg (Apr 10, 3:00 AM)
Average34 °F61%30.06 "Hg
* Reported Apr 10 3:00 AM — Apr 25 3:00 AM, Selkirk, Weather by CustomWeather, © 2014

Note: Actual official high and low records may vary slightly from our data, if they occured in-between our weather recording intervals... More about our weather records

Advertising

Historic Weather Conditions — Data for Previous 24 hours

 ConditionsComfort  
Time TempWeatherWind HumidityBarometerVisibility
3:00 AM
Apr 25
33 °FChilly.2 mph94%29.80 "HgN/A
2:00 AM33 °FChilly.3 mph95%29.80 "HgN/A
1:00 AM33 °FChilly.3 mph94%29.80 "HgN/A
12:00 AM31 °FChilly.3 mph100%29.80 "HgN/A
11:00 PM
Apr 24
33 °FChilly.5 mph94%29.80 "HgN/A
10:00 PM33 °FChilly.3 mph95%29.80 "HgN/A
9:00 PM33 °FChilly.2 mph95%29.80 "HgN/A
8:00 PM33 °FChilly.3 mph94%29.80 "HgN/A
7:00 PM34 °FChilly.2 mph92%29.79 "HgN/A
6:00 PM36 °FChilly.5 mph91%29.79 "HgN/A
5:00 PM37 °FChilly.5 mph89%29.78 "HgN/A
4:00 PM38 °FChilly.5 mph89%29.77 "HgN/A
3:00 PM38 °FChilly.6 mph89%29.77 "HgN/A
2:00 PM39 °FChilly.6 mph90%29.78 "HgN/A
1:00 PM40 °FChilly.5 mph89%29.79 "HgN/A
12:00 PM40 °FChilly.5 mph91%29.79 "HgN/A
11:00 AM39 °FChilly.6 mph91%29.80 "HgN/A
10:00 AM39 °FChilly.5 mph92%29.81 "HgN/A
9:00 AM39 °FChilly.6 mph92%29.81 "HgN/A
8:00 AM39 °FChilly.5 mph91%29.83 "HgN/A
7:00 AM39 °FChilly.6 mph89%29.83 "HgN/A
6:00 AM39 °FChilly.5 mph88%29.83 "HgN/A
5:00 AM39 °FChilly.6 mph87%29.83 "HgN/A
4:00 AM40 °FChilly.5 mph86%29.84 "HgN/A
Weather by CustomWeather, © 2014

See weather overview